Погода в Хилове

Россия / Псковская область     57°46′09″N   29°22′32″E
В апреле 2022 года жителям России запретили посещать сайт meteo.paraplan.net по решению Генеральной прокуратуры. Аудитория сайта уменьшилась в 10 раз. Владельцы сайта не видят смысла в поддержке погодного сервера в таких условиях. Сайт будет закрыт в октябре.
темп.,
°C
ветер,
м/с
пор.,
м/с
влажн.,
%
обл.,
%
осадки,
мм/ч
давл.,
гПа
погр.,
м
4 октября, вт
вт400:00+7ссв4997100 0.6 995524
03:00+7всв2694100 0.8 996234
06:00+6в259495 0.1 997276
09:00+5в239393 0.1 999203
12:00+6всв2284100 0.1 1001556
15:00+7св2285100 0.2 1002584
18:00+6с239072 0.3 1004185
21:00+5сз259384 0.3 1006191
5 октября, ср
ср500:00+5зсз2594100 0.1 1008174
03:00+5зюз1294100 0.3 100985
06:00+5з139768 0.1 1010100
09:00+6з2495100 0.1 1011171
12:00+7з2795100 0.0 1013490
15:00+10з347996 0.1 1014742
18:00+8юз2489100 0.0 1014122
21:00+8ююз269688 0.1 1014205
6 октября, чт
чт600:00+8ю269899 0.0 1014176
03:00+9ю2799100 0.2 1014228
06:00+10ююз399795 0.2 1013338
09:00+11ююз412905 0.2 1012437
12:00+15юз512730 0.0 1011635
15:00+16юз5116812 0.0 1010883
18:00+15юз51276100 0.0 10111025
21:00+13з61385100 2.0 10121046
7 октября, пт
пт700:00+10зюз5139044 0.0 1015953
03:00+11зюз61480100 0.0 10161414
06:00+11з61379100 0.0 10171366
09:00+11зюз6137862 0.1 10191295
12:00+12зюз611705 0.1 10201258
15:00+14зюз610640 0.1 10201295
18:00+12юз411705 0.0 1020661
21:00+11юз4128043 0.0 1020532
8 октября, сб
сб800:00+11юз5138596 0.0 1020675
03:00+10юз51478100 0.0 1018742
06:00+10ююз5148195 0.0 1017584
09:00+10ююз51477100 0.0 1015689
12:00+13ююз61366100 0.0 1013956
15:00+14ююз613645 0.0 10111362
18:00+13юз6136959 0.0 10101227
21:00+11юз512795 0.3 1011831